User: anonymous   Login
Location: Athabasca
(54.7194°N, 113.2858°W)
Time: 16:05:27
(UTC+00:00)
Language:

PEGASUS DEB - Orbit

View from above orbital plane
View from above orbital plane
View from above satellite
View from above satellite

Ground track
Ground track

The orbit data is extracted from the following two-line orbital elements,

1 39922U 94029AFV 24149.44755193  .00004530  00000-0  55732-3 0  9994
2 39922  81.5932  46.5324 0143693 233.4050 125.3869 14.75681890126576
Epoch (UTC): 28 May 2024 10:44:28
Eccentricity: 0.0143693
inclination: 81.5932°
perigee height: 542 km
apogee height: 744 km
right ascension of ascending node: 46.5324°
argument of perigee: 233.4050°
revolutions per day: 14.75681890
mean anomaly at epoch: 125.3869°
orbit number at epoch: 12657

The dashed part of the orbit path shows where the satellite is in the earth's shadow,  

DLR